User: anonymous   Login
Location: Carnetin
(48.9010°N, 2.7059°E)
Time: 23:45:20
(UTC+00:00)
Language:

FENGYUN 1C DEB - Orbit

View from above orbital plane
View from above orbital plane
View from above satellite
View from above satellite

Ground track
Ground track

The orbit data is extracted from the following two-line orbital elements,

1 30852U 99025AWN 22222.52526715  .00000482  00000-0  30806-3 0  9990
2 30852  98.8491 255.4619 0060310  77.4607 283.3300 14.07181584792042
Epoch (UTC): 10 August 2022 12:36:23
Eccentricity: 0.0060310
inclination: 98.8491°
perigee height: 825 km
apogee height: 913 km
right ascension of ascending node: 255.4619°
argument of perigee: 77.4607°
revolutions per day: 14.07181584
mean anomaly at epoch: 283.3300°
orbit number at epoch: 79204

The dashed part of the orbit path shows where the satellite is in the earth's shadow,  

DLR